Location: Roland
(31.1349°N, 85.4372°W)
Time: 00:48:32
(UTC+00:00)

S-56A Canister/Altair - Pass Details

Date: 23 April 2021
Orbit: 632 x 2500 km, 38.9° (Epoch: 06 May)

Event Time Altitude Azimuth Distance (km) Brightness Sun altitude
Exits shadow 10:31:03 - 277° (W) 2,359 9.5 -7.7°
Reaches altitude 10° 10:31:59 10° 271° (W) 2,040 9.1 -7.5°
Maximum altitude 10:35:35 24° 217° (SW) 1,307 8.3 -6.8°
Drops below altitude 10° 10:39:15 10° 163° (SSE) 2,059 9.7 -6.1°
Sets 10:42:04 0° 149° (SSE) 3,089 10.8 -5.5°
